COSMOS 2288 (GLONASS)

Satellite information

Favourite Embed

Satellite Type and Status

PAYLOADIN ORBIT

Key statistics

Satellite COSMOS 2288 (GLONASS) at a glance.

Uptime

11447

Days in orbit

Revolutions

≈ 2.1

Per day

Orbit

MEO

Medium Earth Orbit

Inclination

65.4

Latest

Satellite identification and parameters

Extended collection of information and parameters for COSMOS 2288 (GLONASS).

Object identification

Identified? True

Debris? False

Object name: COSMOS 2288 (GLONASS)

International designator: 1994-050C

Object number (NORAD): 23205

Object ID (CCSDS): 23205

Country: COMMONWEALTH OF INDEPENDENT STATES (CIS)

Current information (Y/N): Y

RCS size: LARGE

Orbital parameters

Period: 675.734 minutes

Inclination: 65.4096 deg

SMA: 25508.056 km

Apoapsis: 19133.672 km

Periapsis: 19126.17 km

RAAN: 208.2145 deg

Eccentricy: 0.00014705

Argument of periapsis: 316.9275 deg

Mean anomaly: 220.2477 deg

Mean motion: 2.13101609 rev/day

Mean motion (dot): 0.00000045 rev/day2

B* drag term: 0.0 1/REarth

Two-line elements (TLE)

Creation date: Dec. 12, 2025, 10:14 a.m.

Reference frame: TEME

Reference center: EARTH

Epoch: Dec. 12, 2025, 4:22 a.m. UTC

TLE line 0: 0 COSMOS 2288 (GLONASS)

TLE line 1: 1 23205U 94050C 25346.18241852 .00000045 00000-0 00000-0 0 9990

TLE line 2: 2 23205 65.4096 208.2145 0001470 316.9275 220.2477 2.13101609243849

Live tracking on map

Real-time ground track for satellite COSMOS 2288 (GLONASS).

In-orbit conjunctions

A list of the most updated potential collisions computed for object COSMOS 2288 (GLONASS).

Target Orbit TCA Probability of collision Miss distance Type
COSMOS 2294 (GLONASS) MEO 2025-12-15 12:44:06 TBA 4560.0 (m) PAYLOAD
COSMOS 2294 (GLONASS) MEO 2025-12-15 01:28:22 TBA 4389.0 (m) PAYLOAD
COSMOS 2294 (GLONASS) MEO 2025-12-14 14:12:37 TBA 4160.0 (m) PAYLOAD
COSMOS 2294 (GLONASS) MEO 2025-12-14 02:56:53 TBA 3890.0 (m) PAYLOAD
COSMOS 2294 (GLONASS) MEO 2025-12-13 15:41:09 TBA 3633.0 (m) PAYLOAD

Associated space launch

GLONASS navigation satellites

COSMOS 2288 (GLONASS) was lifted into orbit during the mission ‘Proton | Uragan 57 to 59’, on board a Proton space rocket.

The launch took place on Aug. 11, 1994, 3:27 p.m. from 81/23 (81L).

For more information about the launch, click the button.

Launch to space Proton | Uragan 57 to 59
Proton | Uragan 57 to 59

Agency: N/A

Status: Launch Successful

Launch date: Aug. 11, 1994, 3:27 p.m. UTC

Rocket: Proton

Launch pad: 81/23 (81L)

Location: Baikonur Cosmodrome, Republic of Kazakhstan

...

Latest news about this satellite

There are no fresh news available about this satellite. Check back as we update our databases every day.


Newsletter sign-up

Weekly statistics, charts and insights to help you stay on top of the space industry.